CW4957 Weather Reports


Display with metric or nautical units.
time (UTC)temp
F
wind
direction
speed
MPH
gust
MPH
rain 1hr
in
rain 24hr
in
rain mn
in
humidity
%
barometer
mb
20260831183251 80 231 1.0 3.0 0.00 0.00 0.00 55 1018.1
20260831182759 80 229 1.0 3.0 0.00 0.00 0.00 53 1018.1
20260831182305 80 241 1.0 4.0 0.00 0.00 0.00 53 1018.1
20260831181746 80 44 0.0 4.0 0.00 0.00 0.00 53 1018.1
20260831181255 80 227 0.0 2.0 0.00 0.00 0.00 53 1018.1
20260831180801 80 227 0.0 3.0 0.00 0.00 0.00 52 1018.1
20260831180251 80 227 1.0 3.0 0.00 0.00 0.00 53 1018.1
20260831175802 80 227 0.0 3.0 0.00 0.00 0.00 55 1018.1
20260831175245 80 311 1.0 3.0 0.00 0.00 0.00 54 1018.3
20260831174748 79 14 0.0 3.0 0.00 0.00 0.00 56 1018.3
20260831174314 79 288 1.0 3.0 0.00 0.00 0.00 55 1018.3
20260831173758 79 317 1.0 3.0 0.00 0.00 0.00 56 1018.7
20260831173303 79 253 1.0 3.0 0.00 0.00 0.00 55 1018.7
20260831172749 79 285 1.0 3.0 0.00 0.00 0.00 52 1018.7
20260831172259 79 262 1.0 3.0 0.00 0.00 0.00 55 1018.8
20260831171804 79 68 0.0 4.0 0.00 0.00 0.00 56 1018.8
20260831171305 79 229 1.0 4.0 0.00 0.00 0.00 51 1018.8
20260831170756 79 161 1.0 4.0 0.00 0.00 0.00 55 1019.0
20260831170323 78 121 1.0 4.0 0.00 0.00 0.00 56 1019.0
20260831165750 78 108 1.0 4.0 0.00 0.00 0.00 55 1019.0
20260831165255 78 259 1.0 4.0 0.00 0.00 0.00 57 1019.2
20260831164803 77 150 0.0 3.0 0.00 0.00 0.00 57 1019.2
20260831164249 77 254 1.0 3.0 0.00 0.00 0.00 59 1019.2
20260831163753 77 239 1.0 3.0 0.00 0.00 0.00 60 1019.4
20260831163254 77 237 1.0 4.0 0.00 0.00 0.00 59 1019.4
20260831162758 76 230 2.0 4.0 0.00 0.00 0.00 59 1019.4
20260831162246 76 232 0.0 2.0 0.00 0.00 0.00 60 1019.5
20260831161756 76 226 1.0 3.0 0.00 0.00 0.00 59 1019.5
20260831161246 75 226 1.0 3.0 0.00 0.00 0.00 62 1019.5
20260831160800 75 191 0.0 2.0 0.00 0.00 0.00 61 1019.7
20260831160253 75 191 1.0 2.0 0.00 0.00 0.00 61 1019.7
20260831155813 74 188 0.0 0.0 0.00 0.00 0.00 63 1019.7
20260831155246 74 188 0.0 0.0 0.00 0.00 0.00 62 1019.8
20260831154746 74 188 0.0 0.0 0.00 0.00 0.00 60 1019.8
20260831154244 75 188 0.0 1.0 0.00 0.00 0.00 60 1019.8
20260831153802 75 188 0.0 1.0 0.00 0.00 0.00 59 1019.6
20260831153302 75 169 0.0 1.0 0.00 0.00 0.00 59 1019.6
20260831152759 75 169 0.0 1.0 0.00 0.00 0.00 62 1019.6
20260831152305 75 169 0.0 0.0 0.00 0.00 0.00 63 1019.5
20260831151745 75 169 0.0 1.0 0.00 0.00 0.00 65 1019.5
20260831151307 75 169 0.0 1.0 0.00 0.00 0.00 64 1019.5
20260831150747 75 169 0.0 1.0 0.00 0.00 0.00 69 1019.7
20260831150249 75 169 0.0 1.0 0.00 0.00 0.00 66 1019.7
20260831145757 75 188 0.0 0.0 0.00 0.00 0.00 67 1019.7
20260831145320 75 190 0.0 2.0 0.00 0.00 0.00 67 1019.8
20260831144744 75 190 0.0 2.0 0.00 0.00 0.00 65 1019.8
20260831144250 74 190 1.0 2.0 0.00 0.00 0.00 67 1019.8
20260831143755 74 161 1.0 3.0 0.00 0.00 0.00 68 1019.7
20260831143309 74 161 0.0 3.0 0.00 0.00 0.00 70 1019.7
20260831142748 74 184 0.0 3.0 0.00 0.00 0.00 70 1019.7
20260831142252 74 248 1.0 3.0 0.00 0.00 0.00 71 1019.8
20260831141753 74 243 0.0 3.0 0.00 0.00 0.00 71 1019.8
20260831141258 74 242 1.0 3.0 0.00 0.00 0.00 71 1019.8
20260831140756 74 70 0.0 2.0 0.00 0.00 0.00 72 1019.8
20260831140245 73 67 0.0 2.0 0.00 0.00 0.00 73 1019.8
20260831135805 73 178 0.0 3.0 0.00 0.00 0.00 73 1019.8
20260831135247 73 204 0.0 3.0 0.00 0.00 0.00 74 1019.7
20260831134814 73 68 0.0 2.0 0.00 0.00 0.00 75 1019.7
20260831134257 72 61 0.0 0.0 0.00 0.00 0.00 76 1019.7
20260831133755 72 61 0.0 0.0 0.00 0.00 0.00 77 1019.6
20260831133257 71 61 0.0 0.0 0.00 0.00 0.00 80 1019.6
20260831132817 71 61 0.0 1.0 0.00 0.00 0.00 82 1019.6
20260831132300 70 61 0.0 2.0 0.00 0.00 0.00 83 1019.7
20260831131805 69 61 0.0 2.0 0.00 0.00 0.00 84 1019.7
20260831131245 68 219 0.0 0.0 0.00 0.00 0.00 88 1019.7
20260831130809 68 219 0.0 0.0 0.00 0.00 0.00 90 1019.8
20260831130254 67 219 0.0 0.0 0.00 0.00 0.00 92 1019.8
20260831125754 66 219 0.0 0.0 0.00 0.00 0.00 92 1019.8
20260831125257 66 219 0.0 0.0 0.00 0.00 0.00 94 1019.7
20260831124801 65 219 0.0 0.0 0.00 0.00 0.00 95 1019.7
20260831124259 65 219 0.0 0.0 0.00 0.00 0.00 95 1019.7
20260831123803 64 219 0.0 0.0 0.00 0.00 0.00 96 1019.7
20260831123250 63 219 0.0 0.0 0.00 0.00 0.00 96 1019.7
20260831122811 63 219 0.0 0.0 0.00 0.00 0.00 96 1019.7
20260831122252 62 219 0.0 1.0 0.00 0.00 0.00 96 1019.8
20260831121753 61 360 0.0 1.0 0.00 0.00 0.00 95 1019.8
20260831121301 61 360 0.0 0.0 0.00 0.00 0.00 95 1019.8
20260831120745 60 360 0.0 0.0 0.00 0.00 0.00 94 1019.5
20260831120251 60 219 0.0 0.0 0.00 0.00 0.00 94 1019.5
20260831115756 60 219 0.0 0.0 0.00 0.00 0.00 94 1019.5
20260831115323 60 219 0.0 0.0 0.00 0.00 0.00 94 1019.4
20260831114746 59 219 0.0 0.0 0.00 0.00 0.00 94 1019.4
20260831114256 59 219 0.0 0.0 0.00 0.00 0.00 93 1019.4
20260831113745 59 219 0.0 0.0 0.00 0.00 0.00 93 1019.3
20260831113252 59 219 0.0 0.0 0.00 0.00 0.00 93 1019.3
20260831112759 59 219 0.0 0.0 0.00 0.00 0.00 93 1019.3
20260831112301 59 219 0.0 0.0 0.00 0.00 0.00 93 1019.3
20260831111822 59 219 0.0 0.0 0.00 0.00 0.00 92 1019.3
20260831111248 59 219 0.0 0.0 0.00 0.00 0.00 92 1019.3
20260831110750 59 219 0.0 0.0 0.00 0.00 0.00 92 1019.0
20260831110257 59 219 0.0 0.0 0.00 0.00 0.00 92 1019.0
20260831105743 59 219 0.0 0.0 0.00 0.00 0.00 92 1019.0
20260831105255 59 219 0.0 0.0 0.00 0.00 0.00 92 1018.9
20260831104801 60 219 0.0 0.0 0.00 0.00 0.00 92 1018.9
20260831104304 60 219 0.0 0.0 0.00 0.00 0.00 92 1018.9
20260831103806 60 219 0.0 0.0 0.00 0.00 0.00 92 1018.7
20260831103253 60 219 0.0 2.0 0.00 0.00 0.00 92 1018.7
20260831102819 60 219 0.0 2.0 0.00 0.00 0.00 92 1018.7
20260831102246 60 219 0.0 0.0 0.00 0.00 0.00 92 1018.6
20260831101811 60 219 0.0 0.0 0.00 0.00 0.00 92 1018.6
20260831101251 60 219 0.0 1.0 0.00 0.00 0.00 92 1018.6
20260831100811 60 219 0.0 1.0 0.00 0.00 0.00 92 1018.8
20260831100303 60 219 0.0 0.0 0.00 0.00 0.00 92 1018.8
20260831095755 61 219 0.0 0.0 0.00 0.00 0.00 91 1018.8
20260831095243 61 219 0.0 0.0 0.00 0.00 0.00 91 1018.8
20260831094756 61 219 0.0 0.0 0.00 0.00 0.00 91 1018.8
20260831094245 61 219 0.0 0.0 0.00 0.00 0.00 91 1018.8
20260831093750 61 219 0.0 0.0 0.00 0.00 0.00 91 1018.6
20260831093254 61 219 0.0 0.0 0.00 0.00 0.00 91 1018.6
20260831092742 61 219 0.0 0.0 0.00 0.00 0.00 91 1018.6
20260831092313 61 219 0.0 0.0 0.00 0.00 0.00 91 1018.4
20260831091801 61 219 0.0 0.0 0.00 0.00 0.00 91 1018.4
20260831091309 61 219 0.0 1.0 0.00 0.00 0.00 91 1018.4
20260831090757 61 219 0.0 1.0 0.00 0.00 0.00 91 1018.2
20260831090304 61 219 0.0 0.0 0.00 0.00 0.00 91 1018.2
20260831085809 62 219 0.0 0.0 0.00 0.00 0.00 91 1018.2
20260831085312 62 219 0.0 0.0 0.00 0.00 0.00 90 1018.1
20260831084756 62 219 0.0 0.0 0.00 0.00 0.00 90 1018.1
20260831084248 62 219 0.0 0.0 0.00 0.00 0.00 90 1018.1
20260831083757 62 219 0.0 0.0 0.00 0.00 0.00 90 1018.0
20260831083250 62 219 0.0 0.0 0.00 0.00 0.00 90 1018.0
20260831082801 62 219 0.0 0.0 0.00 0.00 0.00 90 1018.0
20260831082255 62 219 0.0 0.0 0.00 0.00 0.00 90 1018.2
20260831081818 62 219 0.0 0.0 0.00 0.00 0.00 90 1018.2
20260831081304 62 219 0.0 0.0 0.00 0.00 0.00 90 1018.2
20260831080811 62 219 0.0 0.0 0.00 0.00 0.00 90 1018.0
20260831080252 62 219 0.0 0.0 0.00 0.00 0.00 90 1018.0
20260831075758 62 219 0.0 0.0 0.00 0.00 0.00 90 1018.0
20260831075306 62 219 0.0 0.0 0.00 0.00 0.00 90 1017.8
20260831074748 63 219 0.0 0.0 0.00 0.00 0.00 90 1017.8
20260831074258 63 219 0.0 0.0 0.00 0.00 0.00 90 1017.8
20260831073825 63 219 0.0 0.0 0.00 0.00 0.00 90 1017.8
20260831073251 63 219 0.0 0.0 0.00 0.00 0.00 90 1017.8
20260831072759 63 219 0.0 0.0 0.00 0.00 0.00 90 1017.8
20260831072301 63 219 0.0 0.0 0.00 0.00 0.00 89 1017.8
20260831071745 63 219 0.0 0.0 0.00 0.00 0.00 89 1017.8
20260831071251 63 219 0.0 0.0 0.00 0.00 0.00 88 1017.8
20260831070757 63 219 0.0 0.0 0.00 0.00 0.00 88 1017.7
20260831070259 63 219 0.0 0.0 0.00 0.00 0.00 88 1017.7
20260831065759 63 219 0.0 0.0 0.00 0.00 0.00 87 1017.7
20260831065300 63 219 0.0 0.0 0.00 0.00 0.00 87 1017.4
20260831064820 63 219 0.0 0.0 0.00 0.00 0.00 87 1017.4
20260831064258 63 219 0.0 0.0 0.00 0.00 0.00 87 1017.4
20260831063758 64 219 0.0 0.0 0.00 0.00 0.00 87 1017.5
20260831063317 64 219 0.0 0.0 0.00 0.00 0.00 87 1017.5
20260831062755 64 219 0.0 0.0 0.00 0.00 0.00 86 1017.5
20260831062252 64 219 0.0 0.0 0.00 0.00 0.00 86 1017.6
20260831061753 64 219 0.0 0.0 0.00 0.00 0.00 85 1017.6
20260831061312 64 219 0.0 0.0 0.00 0.00 0.00 85 1017.6
20260831060800 64 219 0.0 0.0 0.00 0.00 0.00 85 1017.5
20260831060318 65 219 0.0 0.0 0.00 0.00 0.00 85 1017.5
20260831055758 65 219 0.0 0.0 0.00 0.00 0.00 85 1017.5
20260831055256 65 219 0.0 0.0 0.00 0.00 0.00 84 1017.5
20260831054800 65 219 0.0 0.0 0.00 0.00 0.00 83 1017.5
20260831054255 65 219 0.0 0.0 0.00 0.00 0.00 83 1017.5
20260831053819 65 219 0.0 0.0 0.00 0.00 0.00 83 1017.3
20260831053303 66 219 0.0 0.0 0.00 0.00 0.00 82 1017.3
20260831052803 66 219 0.0 0.0 0.00 0.00 0.00 82 1017.3
20260831052307 66 219 0.0 0.0 0.00 0.00 0.00 81 1017.3
20260831051802 66 219 0.0 0.0 0.00 0.00 0.00 81 1017.3
20260831051254 66 219 0.0 0.0 0.00 0.00 0.00 81 1017.3
20260831050757 67 219 0.0 0.0 0.00 0.00 0.00 81 1017.3
20260831050249 67 219 0.0 0.0 0.00 0.00 0.00 80 1017.3
20260831045750 67 219 0.0 0.0 0.00 0.00 0.00 80 1017.3
20260831045251 67 219 0.0 0.0 0.00 0.00 0.00 80 1017.2
20260831044804 67 219 0.0 0.0 0.00 0.00 0.00 79 1017.2
20260831044245 68 219 0.0 0.0 0.00 0.00 0.00 79 1017.2
20260831043809 68 219 0.0 0.0 0.00 0.00 0.00 79 1017.0
20260831043309 68 219 0.0 0.0 0.00 0.00 0.00 79 1017.0
20260831042751 68 219 0.0 0.0 0.00 0.00 0.00 79 1017.0
20260831042252 68 219 0.0 1.0 0.00 0.00 0.00 79 1017.0
20260831041755 68 219 0.0 1.0 0.00 0.00 0.00 78 1017.0
20260831041252 69 219 0.0 0.0 0.00 0.00 0.00 78 1017.0
20260831040750 69 219 0.0 0.0 0.00 0.00 0.00 78 1016.9
20260831040251 69 219 0.0 0.0 0.00 0.00 0.00 78 1016.9
20260831035747 69 219 0.0 1.0 0.00 0.00 0.00 78 1016.9
20260831035306 69 219 0.0 1.0 0.00 0.00 0.00 77 1016.8
20260831034744 69 219 0.0 3.0 0.00 0.00 0.00 77 1016.8
20260831034247 69 219 0.0 3.0 0.00 0.00 0.00 77 1016.8
20260831033751 69 219 0.0 0.0 0.00 0.00 0.00 76 1017.1
20260831033251 69 219 0.0 0.0 0.00 0.00 0.00 76 1017.1
20260831032753 70 219 0.0 0.0 0.00 0.00 0.00 76 1017.1
20260831032316 70 219 0.0 2.0 0.00 0.00 0.00 76 1017.0
20260831031819 70 219 0.0 3.0 0.00 0.00 0.00 76 1017.0
20260831031301 70 219 1.0 3.0 0.00 0.00 0.00 76 1017.0
20260831030745 70 219 0.0 0.0 0.00 0.00 0.00 75 1016.9
20260831030304 70 219 0.0 0.0 0.00 0.00 0.00 75 1016.9
20260831025800 70 219 0.0 0.0 0.00 0.00 0.00 75 1016.9
20260831025242 71 219 0.0 0.0 0.00 0.00 0.00 75 1016.8
20260831024803 71 219 0.0 0.0 0.00 0.00 0.00 75 1016.8
20260831024249 71 219 0.0 0.0 0.00 0.00 0.00 75 1016.8
20260831023751 71 219 0.0 1.0 0.00 0.00 0.00 75 1016.7
20260831023252 71 219 0.0 2.0 0.00 0.00 0.00 75 1016.7
20260831022755 71 219 1.0 2.0 0.00 0.00 0.00 74 1016.7
20260831022253 71 219 0.0 1.0 0.00 0.00 0.00 74 1016.5
20260831021756 71 219 0.0 2.0 0.00 0.00 0.00 74 1016.5
20260831021254 71 219 0.0 4.0 0.00 0.00 0.00 73 1016.5
20260831020753 71 229 0.0 1.0 0.00 0.00 0.00 73 1016.9
20260831020245 71 229 0.0 1.0 0.00 0.00 0.00 73 1016.9
20260831015800 71 229 0.0 1.0 0.00 0.00 0.00 73 1016.9
20260831015317 72 229 0.0 0.0 0.00 0.00 0.00 73 1016.8
20260831014759 72 229 0.0 0.0 0.00 0.00 0.00 73 1016.8
20260831014257 72 229 0.0 0.0 0.00 0.00 0.00 73 1016.8
20260831013821 72 229 0.0 0.0 0.00 0.00 0.00 73 1016.8
20260831013323 72 229 0.0 0.0 0.00 0.00 0.00 73 1016.8
20260831012742 72 229 0.0 0.0 0.00 0.00 0.00 72 1016.8
20260831012249 72 229 0.0 0.0 0.00 0.00 0.00 72 1016.7
20260831011752 72 229 0.0 4.0 0.00 0.00 0.00 72 1016.7
20260831011249 72 229 1.0 4.0 0.00 0.00 0.00 72 1016.7
20260831010753 72 296 0.0 2.0 0.00 0.00 0.00 72 1016.6
20260831010246 72 296 0.0 1.0 0.00 0.00 0.00 71 1016.6
20260831005802 73 296 0.0 1.0 0.00 0.00 0.00 71 1016.6
20260831005246 73 296 0.0 2.0 0.00 0.00 0.00 71 1016.2
20260831004748 73 323 0.0 4.0 0.00 0.00 0.00 70 1016.2
20260831004249 73 321 1.0 4.0 0.00 0.00 0.00 70 1016.2
20260831003751 73 146 0.0 2.0 0.00 0.00 0.00 69 1016.2
20260831003254 73 146 0.0 0.0 0.00 0.00 0.00 69 1016.2
20260831002759 73 148 0.0 2.0 0.00 0.00 0.00 69 1016.2
20260831002306 73 148 1.0 2.0 0.00 0.00 0.00 68 1015.8
20260831001747 74 145 0.0 0.0 0.00 0.00 0.00 68 1015.8
20260831001249 74 145 0.0 0.0 0.00 0.00 0.00 68 1015.8
20260831000752 74 145 0.0 1.0 0.00 0.00 0.00 68 1015.6
20260831000248 74 145 0.0 1.0 0.00 0.00 0.00 68 1015.6
20260830235818 74 145 0.0 1.0 0.00 0.00 0.00 67 1015.6
20260830235301 74 145 0.0 2.0 0.00 0.00 0.00 67 1015.6
20260830234759 75 145 0.0 3.0 0.00 0.00 0.00 67 1015.6
20260830234303 75 145 0.0 3.0 0.00 0.00 0.00 68 1015.6
20260830233745 75 276 0.0 2.0 0.00 0.00 0.00 68 1015.5
20260830233248 75 308 1.0 2.0 0.00 0.00 0.00 69 1015.5
20260830232753 75 245 0.0 3.0 0.00 0.00 0.00 70 1015.5
20260830232257 75 325 0.0 3.0 0.00 0.00 0.00 70 1015.4
20260830231803 75 344 1.0 3.0 0.00 0.00 0.00 70 1015.4
20260830231245 76 232 1.0 4.0 0.00 0.00 0.00 71 1015.4
20260830230808 76 350 2.0 4.0 0.00 0.00 0.00 70 1015.3
20260830230300 76 236 0.0 3.0 0.00 0.00 0.00 70 1015.3
20260830225757 76 223 0.0 1.0 0.00 0.00 0.00 71 1015.3
20260830225255 76 223 0.0 2.0 0.00 0.00 0.00 70 1015.5
20260830224757 76 223 0.0 0.0 0.00 0.00 0.00 70 1015.5
20260830224321 76 223 0.0 0.0 0.00 0.00 0.00 70 1015.5
20260830223803 76 223 0.0 1.0 0.00 0.00 0.00 69 1015.5
20260830223322 76 223 0.0 1.0 0.00 0.00 0.00 68 1015.5
20260830222759 76 223 0.0 4.0 0.00 0.00 0.00 68 1015.5
20260830222319 77 210 1.0 5.0 0.00 0.00 0.00 68 1015.4
20260830221758 77 238 1.0 5.0 0.00 0.00 0.00 69 1015.4
20260830221257 77 224 0.0 4.0 0.00 0.00 0.00 69 1015.4
20260830220800 77 211 0.0 2.0 0.00 0.00 0.00 70 1015.4
20260830220302 77 211 0.0 3.0 0.00 0.00 0.00 70 1015.4
20260830215822 77 209 0.0 1.0 0.00 0.00 0.00 71 1015.4
20260830215305 77 209 0.0 3.0 0.00 0.00 0.00 70 1015.3
20260830214747 76 209 1.0 3.0 0.00 0.00 0.00 71 1015.3
20260830214251 76 330 0.0 0.0 0.00 0.00 0.00 72 1015.3
20260830213817 76 330 0.0 1.0 0.00 0.00 0.00 71 1015.4
20260830213256 76 330 0.0 1.0 0.00 0.00 0.00 72 1015.4
20260830212759 76 330 0.0 2.0 0.00 0.00 0.00 71 1015.4
20260830212305 76 243 0.0 3.0 0.00 0.00 0.00 72 1015.6
20260830211746 75 243 1.0 3.0 0.00 0.00 0.00 71 1015.6
20260830211252 75 243 1.0 2.0 0.00 0.00 0.00 72 1015.6
20260830210810 75 52 0.0 0.0 0.00 0.00 0.00 72 1015.7
20260830210245 75 52 0.0 0.0 0.00 0.00 0.00 73 1015.7
20260830205749 75 52 0.0 0.0 0.00 0.00 0.00 74 1015.7
20260830205252 75 52 0.0 0.0 0.00 0.00 0.00 73 1015.7
20260830204752 75 52 0.0 0.0 0.00 0.00 0.00 72 1015.7
20260830204252 75 52 0.0 0.0 0.00 0.00 0.00 72 1015.7
20260830203756 75 52 0.0 0.0 0.00 0.00 0.00 71 1015.8
20260830203259 75 52 0.0 0.0 0.00 0.00 0.00 70 1015.8
20260830202800 75 52 0.0 0.0 0.00 0.00 0.00 70 1015.8
20260830202245 75 52 0.0 0.0 0.00 0.00 0.00 69 1015.8
20260830201745 75 52 0.0 2.0 0.00 0.00 0.00 68 1015.8
20260830201315 75 52 0.0 2.0 0.00 0.00 0.00 68 1015.8
20260830200752 75 351 0.0 1.0 0.00 0.00 0.00 68 1016.1
20260830200325 75 351 0.0 1.0 0.00 0.00 0.00 68 1016.1
20260830195822 75 351 0.0 0.0 0.00 0.00 0.00 67 1016.1
20260830195245 75 351 0.0 0.0 0.00 0.00 0.00 67 1016.2
20260830194746 76 351 0.0 0.0 0.00 0.00 0.00 67 1016.2
20260830194246 76 351 0.0 0.0 0.00 0.00 0.00 66 1016.2
20260830193745 76 351 0.0 0.0 0.00 0.00 0.00 65 1016.2
20260830193303 76 351 0.0 0.0 0.00 0.00 0.00 65 1016.2
20260830192804 76 351 0.0 0.0 0.00 0.00 0.00 65 1016.2
20260830192245 76 351 0.0 0.0 0.00 0.00 0.00 64 1016.3
20260830191757 77 351 0.0 1.0 0.00 0.00 0.00 63 1016.3
20260830191258 77 351 0.0 1.0 0.00 0.00 0.00 62 1016.3
20260830190813 77 351 0.0 2.0 0.00 0.00 0.00 63 1016.5
20260830190249 77 351 0.0 2.0 0.00 0.00 0.00 62 1016.5
20260830185751 77 351 1.0 2.0 0.00 0.00 0.00 62 1016.5
20260830185249 77 65 1.0 3.0 0.00 0.00 0.00 61 1016.7
20260830184752 78 90 0.0 3.0 0.00 0.00 0.00 62 1016.7
20260830184312 78 92 1.0 3.0 0.00 0.00 0.00 61 1016.7
20260830183817 78 314 0.0 2.0 0.00 0.00 0.00 62 1016.8